Weather Roundup
Issued by NWS Chicago, IL

Home | Current Version | Previous Version | Graphics & Text | Print | Product List | Glossary On
Versions: 1 2 3 4 5 6 7 8 9 10 11 12 13 14 15 16 17 18 19 20 21 22 23 24 25 26 27 28 29 30 31 32 33 34 35 36 37 38 39 40 41 42 43 44 45 46 47 48 49 50
000
NZUS59 KLOT 162303
HRRLOT

CHICAGO AREA WEATHER ROUNDUP
NATIONAL WEATHER SERVICE CHICAGO/ROMEOVILLE IL
500 PM CST TUE JAN 16 2018

NOTE: "FAIR" INDICATES FEW OR NO CLOUDS BELOW 12,000 FEET WITH NO
SIGNIFICANT WEATHER AND/OR OBSTRUCTIONS TO VISIBILITY.

* THESE STATIONS ARE NOT UNDER NWS QUALITY CONTROL. THEY ALSO MAY NOT
  REPORT WEATHER SUCH AS PRECIPITATION OR FOG.

ILZ005-006-012>014-019>023-170000-
NORTHEAST ILLINOIS

CITY           SKY/WX    TMP DP  RH WIND       PRES   REMARKS
OHARE          MOCLDY    22  10  60 NW14      30.48R WCI   9
MIDWAY           N/A     23  11  60 NW9       30.48R WCI  13
AURORA           N/A     13   8  81 W10       30.52R WCI   0
LANSING*       CLOUDY    23  15  71 NW3       30.48R
JOLIET*          N/A     19  12  75 NW6       30.52R WCI  10
WAUKEGAN         N/A     22   9  57 NW7       30.48R WCI  13
DUPAGE AIRPORT CLOUDY    18  10  71 NW10      30.49R WCI   6
WHEELING         N/A     22  11  62 NW10      30.50R WCI  11
KANKAKEE*        N/A     13   8  79 W12       30.52R WCI  -1
MORRIS*          N/A     14   8  78 W10       30.52R WCI   1
LEWIS AIRPORT*   N/A     17  11  80 NW12      30.51R WCI   4
NORTHERLY ISL    N/A     23  11  60 NW13        N/A  WCI  11
$$

WIZ051-052-058>065-066-070>072-170000-
SOUTHEAST WISCONSIN

CITY           SKY/WX    TMP DP  RH WIND       PRES   REMARKS
MILWAUKEE        N/A     22  10  60 NW12      30.49R WCI  10
KENOSHA*         N/A     20   7  57 NW7       30.49R WCI  11
RACINE*        MOCLDY    21   8  57 NW7       30.50R WCI  12
BURLINGTON       N/A     17   8  67 NW5       30.50R WCI  10
WAUKESHA       CLEAR     16   9  73 NW8       30.49R WCI   5
WEST BEND        N/A     18  12  79 NW6       30.48S WCI   9
$$

INZ001>003-010>013-019-020-170000-
NORTHWEST INDIANA

CITY           SKY/WX    TMP DP  RH WIND       PRES   REMARKS
GARY*          MOCLDY    25  14  63 NW12      30.48R WCI  14
MICHIGAN CITY* NOT AVBL
RENSSELAER*    NOT AVBL
VALPARAISO     SNOW      19  16  88 S7        30.46R VSB 1/2 WCI  10
$$

LMZ740>746-170000-
SOUTHERN LAKE MICHIGAN

STATION/POSITION TIME  SKY/WX   TEMP WIND        PRES    VSBY
                                AIR  DIR/SP/G
                 (UTC)          (F)  (DEG/KT/KT) (MB)    (MI)
HARRISON CRIB    2240            25  310/ 14/ 16   N/A
BURNHAM HARBOR   2300            22  300/ 13/ 14   N/A
CALUMET HARBOR   2230            23  280/  6/ 11 1031.2R
BURNS HARBOR     2240            24  310/ 19/ 22 1031.2R
MICHIGAN CITY    2240                130/  8/  9   N/A
$$

ABBREVIATIONS USED IN REMARKS
   TC - TEMPERATURE IN CELSIUS
  WCI - WIND CHILL INDEX
   HX - HEAT INDEX
  VSB - VISIBILITY
$$




USA.gov is the U.S. government's official web portal to all federal, state and local government web resources and services.